Location: Newark
(48.8656°N, 2.3211°E)
Time: 17:06:44
(UTC+00:00)

Envisat - Pass Details

Date: 23 February 2019
Orbit: 764 x 766 km, 98.2° (Epoch: 19 March)

Event Time Altitude Azimuth Distance (km) Brightness Sun altitude
Rises 05:43:23 0° 34° (NNE) 3,243 6.7 -10.9°
Reaches altitude 10° 05:48:27 10° 78° (ENE) 2,307 6.9 -10.0°
Maximum altitude 05:48:59 10° 84° (E) 2,296 7.0 -9.9°
Drops below altitude 10° 05:49:31 10° 90° (E) 2,305 7.1 -9.9°
Sets 05:54:32 0° 134° (SE) 3,221 7.1 -9.0°
